El Segundo, CA

7:12 AM PST on February 26, 2017 (GMT -0800)
Los Angeles International

Weather History for KLAX - October, 2011

Change the Weather History Date:

Thursday, October 6, 2011

  Actual Average Record
Temperature  
Mean Temperature 59 °F 67 °F  
Max Temperature 65 °F 73 °F 101 °F (1971)
Min Temperature 52 °F 61 °F 50 °F (1946)
Degree Days  
Heating Degree Days 6 1  
Month to date heating degree days 10 3  
Since 1 July heating degree days 16 12  
Cooling Degree Days 0 3  
Month to date cooling degree days 10 18  
Year to date cooling degree days 356 486  
Growing Degree Days 8 (Base 50)    
Moisture  
Dew Point 49 °F    
Average Humidity 68    
Maximum Humidity 83    
Minimum Humidity 52    
Precipitation  
Precipitation 0.00 in 0.02 in 0.62 in (2010)
Month to date precipitation 0.63 0.08  
Year to date precipitation 7.51 9.18  
Since 1 July precipitation 0.64  
Sea Level Pressure  
Sea Level Pressure 29.90 in    
Wind  
Wind Speed 8 mph (West)    
Max Wind Speed 23 mph    
Max Gust Speed 28 mph    
Visibility 10 miles    
Events      
T = Trace of Precipitation, MM = Missing Value Source: NWS Daily Summary

Daily Weather History Graph

Daily Weather History Graph

Search for Another Location

Airport or City:

Trip Planner

Search our weather history database for the weather conditions in past years. The results will help you decide how hot, cold, wet, or windy it might be!

Date:

Astronomy

Oct. 06, 2011 Rise Set
Actual Time 6:51 AM PDT 6:31 PM PDT
Civil Twilight 6:26 AM PDT 6:56 PM PDT
Nautical Twilight 5:57 AM PDT 7:25 PM PDT
Astronomical Twilight 5:28 AM PDT 7:54 PM PDT
Moon 3:35 PM PDT (10/6) 1:58 AM PDT (10/6)
Length of Visible Light 12h 29m
Length of Day
11h 39m
Waxing Gibbous, 76% of the Moon is Illuminated
Oct 6
Waxing Gibbous
Oct 11
Full
Oct 19
Last Quarter
Oct 26
New
Nov 2
First Quarter

Hourly Weather History & Observations

Time (PDT) Temp. Dew Point Humidity Pressure Visibility Wind Dir Wind Speed Gust Speed Precip Events Conditions
12:53 AM 57.0 °F 46.0 °F 67% 29.86 in 10.0 mi NNW 6.9 mph - N/A   Partly Cloudy
1:53 AM 55.9 °F 46.0 °F 69% 29.86 in 10.0 mi Variable 3.5 mph - N/A   Partly Cloudy
2:53 AM 55.9 °F 46.0 °F 69% 29.87 in 10.0 mi North 4.6 mph - N/A   Partly Cloudy
3:53 AM 55.0 °F 46.0 °F 72% 29.87 in 10.0 mi Calm Calm - N/A   Partly Cloudy
4:53 AM 55.0 °F 46.0 °F 72% 29.87 in 10.0 mi Calm Calm - N/A   Partly Cloudy
5:53 AM 52.0 °F 46.9 °F 83% 29.88 in 10.0 mi East 3.5 mph - N/A   Partly Cloudy
6:53 AM 55.9 °F 46.9 °F 72% 29.89 in 10.0 mi Calm Calm - N/A   Scattered Clouds
7:53 AM 55.9 °F 46.9 °F 72% 29.90 in 10.0 mi ESE 3.5 mph - N/A   Scattered Clouds
8:53 AM 57.9 °F 48.0 °F 70% 29.92 in 10.0 mi East 3.5 mph - N/A   Scattered Clouds
9:53 AM 61.0 °F 48.0 °F 62% 29.93 in 10.0 mi Calm Calm - N/A   Scattered Clouds
10:53 AM 63.0 °F 48.9 °F 60% 29.93 in 10.0 mi SSW 5.8 mph - N/A   Partly Cloudy
11:53 AM 63.0 °F 48.0 °F 58% 29.93 in 10.0 mi WSW 9.2 mph - N/A   Scattered Clouds
12:53 PM 64.9 °F 46.9 °F 52% 29.92 in 10.0 mi WSW 10.4 mph - N/A   Scattered Clouds
1:53 PM 64.0 °F 48.0 °F 56% 29.91 in 10.0 mi West 10.4 mph - N/A   Scattered Clouds
2:53 PM 64.9 °F 46.9 °F 52% 29.90 in 10.0 mi West 15.0 mph - N/A   Scattered Clouds
3:53 PM 64.9 °F 50.0 °F 58% 29.90 in 10.0 mi West 21.9 mph - N/A   Partly Cloudy
4:53 PM 64.0 °F 51.1 °F 63% 29.89 in 10.0 mi WSW 16.1 mph - N/A   Partly Cloudy
5:53 PM 63.0 °F 51.1 °F 65% 29.88 in 10.0 mi West 17.3 mph - N/A   Partly Cloudy
6:53 PM 63.0 °F 51.1 °F 65% 29.89 in 10.0 mi West 13.8 mph - N/A   Partly Cloudy
7:53 PM 62.1 °F 51.1 °F 67% 29.91 in 10.0 mi West 10.4 mph - N/A   Partly Cloudy
8:53 PM 61.0 °F 52.0 °F 72% 29.92 in 10.0 mi West 10.4 mph - N/A   Scattered Clouds
9:53 PM 62.1 °F 51.1 °F 67% 29.93 in 10.0 mi Variable 6.9 mph - N/A   Scattered Clouds
10:53 PM 60.1 °F 51.1 °F 72% 29.95 in 10.0 mi ENE 6.9 mph - N/A   Scattered Clouds
11:53 PM 60.1 °F 51.1 °F 72% 29.96 in 10.0 mi Variable 4.6 mph - N/A   Scattered Clouds